Time,TemperatureF,DewpointF,PressureIn,WindDirection,WindDirectionDegrees,WindSpeedMPH,WindSpeedGustMPH,Humidity,HourlyPrecipIn,Conditions,Clouds,dailyrainin,SoftwareType,DateUTC
2013-03-05 00:01:00,36.0,28.0,29.86,North,10,3.0,-999.0,74,-99.99,,,-99.99,,2013-03-05 06:01:00,
2013-03-05 00:11:00,36.0,28.0,29.86,North,10,3.0,-999.0,74,-99.99,,,-99.99,,2013-03-05 06:11:00,
2013-03-05 00:22:00,36.0,28.0,29.86,North,350,5.0,-999.0,74,-99.99,,,-99.99,,2013-03-05 06:22:00,
2013-03-05 00:32:00,36.0,28.0,29.86,North,350,5.0,-999.0,74,-99.99,,,-99.99,,2013-03-05 06:32:00,
2013-03-05 00:41:00,36.0,28.0,29.86,North,350,5.0,-999.0,74,-99.99,,,-99.99,,2013-03-05 06:41:00,
2013-03-05 00:52:00,36.0,30.0,29.86,North,350,5.0,-999.0,80,-99.99,,,-99.99,,2013-03-05 06:52:00,
2013-03-05 01:01:00,34.0,30.0,29.86,North,360,6.0,-999.0,86,-99.99,,,-99.99,,2013-03-05 07:01:00,
2013-03-05 01:11:00,34.0,30.0,29.86,North,360,6.0,-999.0,86,-99.99,,,-99.99,,2013-03-05 07:11:00,
2013-03-05 01:21:00,34.0,30.0,29.86,North,350,5.0,-999.0,86,-99.99,,,-99.99,,2013-03-05 07:21:00,
2013-03-05 01:31:00,34.0,30.0,29.87,NNW,340,7.0,-999.0,86,-99.99,,,-99.99,,2013-03-05 07:31:00,
2013-03-05 01:41:00,34.0,30.0,29.87,NNW,340,6.0,-999.0,86,-99.99,,,-99.99,,2013-03-05 07:41:00,
2013-03-05 01:52:00,34.0,30.0,29.87,NNW,340,5.0,-999.0,86,-99.99,,,-99.99,,2013-03-05 07:52:00,
2013-03-05 02:02:00,34.0,30.0,29.87,North,350,6.0,-999.0,86,-99.99,,,-99.99,,2013-03-05 08:02:00,
2013-03-05 02:11:00,34.0,30.0,29.87,North,350,6.0,-999.0,86,-99.99,,,-99.99,,2013-03-05 08:11:00,
2013-03-05 02:21:00,34.0,32.0,29.87,NNW,340,8.0,-999.0,93,-99.99,,,-99.99,,2013-03-05 08:21:00,
2013-03-05 02:31:00,34.0,30.0,29.86,NNW,340,9.0,-999.0,86,-99.99,,,-99.99,,2013-03-05 08:31:00,
2013-03-05 02:41:00,34.0,30.0,29.87,NNW,340,8.0,-999.0,86,-99.99,,,-99.99,,2013-03-05 08:41:00,
2013-03-05 02:52:00,34.0,32.0,29.86,NNW,340,8.0,-999.0,93,-99.99,,,-99.99,,2013-03-05 08:52:00,
2013-03-05 03:01:00,34.0,30.0,29.86,NNW,330,9.0,-999.0,86,-99.99,,,-99.99,,2013-03-05 09:01:00,
2013-03-05 03:11:00,34.0,30.0,29.86,NNW,330,9.0,-999.0,86,-99.99,,,-99.99,,2013-03-05 09:11:00,
2013-03-05 03:21:00,34.0,30.0,29.86,NNW,340,7.0,-999.0,86,-99.99,,,-99.99,,2013-03-05 09:21:00,
2013-03-05 03:31:00,34.0,32.0,29.86,NNW,330,9.0,-999.0,93,-99.99,,,-99.99,,2013-03-05 09:31:00,
2013-03-05 03:42:00,34.0,32.0,29.86,NNW,330,9.0,-999.0,93,-99.99,,,-99.99,,2013-03-05 09:42:00,
2013-03-05 03:52:00,34.0,32.0,29.86,NNW,330,9.0,-999.0,93,-99.99,,,-99.99,,2013-03-05 09:52:00,
2013-03-05 04:01:00,34.0,32.0,29.87,NNW,330,9.0,-999.0,93,-99.99,,,-99.99,,2013-03-05 10:01:00,
2013-03-05 04:11:00,34.0,32.0,29.87,NNW,330,9.0,-999.0,93,-99.99,,,-99.99,,2013-03-05 10:11:00,
2013-03-05 04:21:00,34.0,32.0,29.87,NNW,330,7.0,-999.0,93,-99.99,,,-99.99,,2013-03-05 10:21:00,
2013-03-05 04:32:00,32.0,32.0,29.87,NW,320,8.0,-999.0,100,-99.99,,,-99.99,,2013-03-05 10:32:00,
2013-03-05 04:42:00,32.0,32.0,29.88,NW,320,9.0,-999.0,100,-99.99,,,-99.99,,2013-03-05 10:42:00,
2013-03-05 04:52:00,32.0,32.0,29.88,NW,320,9.0,-999.0,100,-99.99,,,-99.99,,2013-03-05 10:52:00,
2013-03-05 05:01:00,32.0,32.0,29.88,NW,320,9.0,-999.0,100,-99.99,,,-99.99,,2013-03-05 11:01:00,
2013-03-05 05:11:00,32.0,32.0,29.88,NW,320,9.0,-999.0,100,-99.99,,,-99.99,,2013-03-05 11:11:00,
2013-03-05 05:22:00,32.0,32.0,29.90,WNW,300,12.0,-999.0,100,-99.99,,,-99.99,,2013-03-05 11:22:00,
2013-03-05 05:32:00,32.0,32.0,29.91,WNW,300,9.0,-999.0,100,-99.99,,,-99.99,,2013-03-05 11:32:00,
2013-03-05 05:42:00,32.0,30.0,29.91,WNW,290,9.0,-999.0,92,-99.99,,,-99.99,,2013-03-05 11:42:00,
2013-03-05 05:52:00,32.0,30.0,29.91,WNW,300,8.0,-999.0,92,-99.99,,,-99.99,,2013-03-05 11:52:00,
2013-03-05 06:02:00,32.0,30.0,29.92,WNW,300,9.0,-999.0,92,-99.99,,,-99.99,,2013-03-05 12:02:00,
2013-03-05 06:11:00,32.0,30.0,29.92,WNW,300,9.0,-999.0,92,-99.99,,,-99.99,,2013-03-05 12:11:00,
2013-03-05 06:22:00,32.0,30.0,29.91,NW,310,9.0,-999.0,92,-99.99,,,-99.99,,2013-03-05 12:22:00,
2013-03-05 06:32:00,32.0,30.0,29.91,NW,310,9.0,-999.0,92,-99.99,,,-99.99,,2013-03-05 12:32:00,
2013-03-05 06:42:00,32.0,30.0,29.91,NW,310,9.0,-999.0,92,-99.99,,,-99.99,,2013-03-05 12:42:00,
2013-03-05 06:52:00,32.0,30.0,29.93,WNW,290,9.0,-999.0,92,-99.99,,,-99.99,,2013-03-05 12:52:00,
2013-03-05 07:02:00,32.0,30.0,29.93,WNW,300,9.0,-999.0,92,-99.99,,,-99.99,,2013-03-05 13:02:00,
2013-03-05 07:11:00,32.0,30.0,29.93,WNW,300,9.0,-999.0,92,-99.99,,,-99.99,,2013-03-05 13:11:00,
2013-03-05 07:21:00,32.0,32.0,29.92,NW,310,12.0,-999.0,100,-99.99,,,-99.99,,2013-03-05 13:21:00,
2013-03-05 07:32:00,32.0,32.0,29.92,NW,310,12.0,-999.0,100,-99.99,,,-99.99,,2013-03-05 13:32:00,
2013-03-05 07:42:00,32.0,32.0,29.92,NW,310,12.0,-999.0,100,-99.99,,,-99.99,,2013-03-05 13:42:00,
2013-03-05 07:52:00,34.0,30.0,29.92,NW,320,13.0,-999.0,86,-99.99,,,-99.99,,2013-03-05 13:52:00,
2013-03-05 08:02:00,34.0,30.0,29.92,NW,310,15.0,20.0,86,-99.99,,,-99.99,,2013-03-05 14:02:00,
2013-03-05 08:11:00,34.0,30.0,29.92,NW,310,15.0,20.0,86,-99.99,,,-99.99,,2013-03-05 14:11:00,
2013-03-05 08:21:00,34.0,30.0,29.92,NW,310,15.0,20.0,86,-99.99,,,-99.99,,2013-03-05 14:21:00,
2013-03-05 08:32:00,34.0,30.0,29.93,NW,310,15.0,-999.0,86,-99.99,,,-99.99,,2013-03-05 14:32:00,
2013-03-05 08:42:00,34.0,32.0,29.93,NW,310,14.0,24.0,93,-99.99,,,-99.99,,2013-03-05 14:42:00,
2013-03-05 08:52:00,34.0,30.0,29.93,NW,310,18.0,25.0,86,-99.99,,,-99.99,,2013-03-05 14:52:00,
2013-03-05 09:01:00,34.0,30.0,29.94,NW,310,15.0,25.0,86,-99.99,,,-99.99,,2013-03-05 15:01:00,
2013-03-05 09:11:00,34.0,30.0,29.94,NW,310,15.0,25.0,86,-99.99,,,-99.99,,2013-03-05 15:11:00,
2013-03-05 09:21:00,34.0,30.0,29.94,WNW,300,14.0,22.0,86,-99.99,,,-99.99,,2013-03-05 15:21:00,
2013-03-05 09:32:00,34.0,30.0,29.94,WNW,300,14.0,22.0,86,-99.99,,,-99.99,,2013-03-05 15:32:00,
2013-03-05 09:42:00,34.0,28.0,29.95,NW,310,18.0,25.0,80,0.01,,,-99.99,,2013-03-05 15:42:00,
2013-03-05 09:52:00,34.0,28.0,29.96,WNW,300,16.0,23.0,80,0.01,,,-99.99,,2013-03-05 15:52:00,
2013-03-05 10:01:00,34.0,27.0,29.96,NW,310,21.0,27.0,74,0.01,,,-99.99,,2013-03-05 16:01:00,
2013-03-05 10:11:00,34.0,27.0,29.96,NW,310,21.0,27.0,74,0.01,,,-99.99,,2013-03-05 16:11:00,
2013-03-05 10:21:00,34.0,25.0,29.96,WNW,300,24.0,31.0,69,-99.99,,,-99.99,,2013-03-05 16:21:00,
2013-03-05 10:32:00,34.0,25.0,29.96,WNW,300,21.0,32.0,69,-99.99,,,-99.99,,2013-03-05 16:32:00,
2013-03-05 10:42:00,34.0,25.0,29.96,NW,310,18.0,30.0,69,-99.99,,,-99.99,,2013-03-05 16:42:00,
2013-03-05 10:52:00,34.0,23.0,29.96,NW,310,18.0,25.0,64,-99.99,,,-99.99,,2013-03-05 16:52:00,
2013-03-05 11:01:00,36.0,23.0,29.96,WNW,300,21.0,24.0,59,-99.99,,,-99.99,,2013-03-05 17:01:00,
2013-03-05 11:11:00,36.0,23.0,29.96,WNW,300,21.0,24.0,59,-99.99,,,-99.99,,2013-03-05 17:11:00,
2013-03-05 11:21:00,34.0,23.0,29.97,WNW,290,21.0,27.0,64,-99.99,,,-99.99,,2013-03-05 17:21:00,
2013-03-05 11:32:00,34.0,23.0,29.97,WNW,290,18.0,27.0,64,-99.99,,,-99.99,,2013-03-05 17:32:00,
2013-03-05 11:41:00,34.0,23.0,29.97,NW,310,17.0,25.0,64,-99.99,,,-99.99,,2013-03-05 17:41:00,
2013-03-05 11:52:00,34.0,23.0,29.97,WNW,290,20.0,25.0,64,-99.99,,,-99.99,,2013-03-05 17:52:00,
2013-03-05 12:01:00,34.0,21.0,29.98,WNW,300,16.0,29.0,59,-99.99,,,-99.99,,2013-03-05 18:01:00,
2013-03-05 12:11:00,34.0,21.0,29.98,WNW,300,16.0,29.0,59,-99.99,,,-99.99,,2013-03-05 18:11:00,
2013-03-05 12:21:00,36.0,21.0,29.98,WNW,290,21.0,31.0,55,-99.99,,,-99.99,,2013-03-05 18:21:00,
2013-03-05 12:32:00,36.0,21.0,29.98,WNW,290,21.0,28.0,55,-99.99,,,-99.99,,2013-03-05 18:32:00,
2013-03-05 12:42:00,36.0,21.0,29.98,WNW,290,21.0,28.0,55,-99.99,,,-99.99,,2013-03-05 18:42:00,
2013-03-05 12:53:00,36.0,19.0,29.98,WNW,290,22.0,29.0,51,-99.99,,,-99.99,,2013-03-05 18:53:00,
2013-03-05 13:01:00,34.0,19.0,29.98,WNW,290,23.0,29.0,55,-99.99,,,-99.99,,2013-03-05 19:01:00,
2013-03-05 13:11:00,34.0,19.0,29.98,WNW,290,23.0,29.0,55,-99.99,,,-99.99,,2013-03-05 19:11:00,
2013-03-05 13:21:00,34.0,19.0,29.99,West,280,22.0,30.0,55,-99.99,,,-99.99,,2013-03-05 19:21:00,
2013-03-05 13:32:00,32.0,19.0,30.00,West,280,17.0,28.0,59,-99.99,,,-99.99,,2013-03-05 19:32:00,
2013-03-05 13:42:00,32.0,19.0,30.00,West,280,20.0,27.0,59,-99.99,,,-99.99,,2013-03-05 19:42:00,
2013-03-05 13:52:00,32.0,19.0,30.00,WNW,290,18.0,25.0,59,-99.99,,,-99.99,,2013-03-05 19:52:00,
2013-03-05 14:01:00,32.0,18.0,30.00,WNW,290,18.0,-999.0,54,-99.99,,,-99.99,,2013-03-05 20:01:00,
2013-03-05 14:11:00,32.0,18.0,30.00,WNW,290,18.0,-999.0,54,-99.99,,,-99.99,,2013-03-05 20:11:00,
2013-03-05 14:21:00,32.0,19.0,30.00,West,280,16.0,23.0,59,-99.99,,,-99.99,,2013-03-05 20:21:00,
2013-03-05 14:32:00,32.0,19.0,30.00,West,280,16.0,23.0,59,-99.99,,,-99.99,,2013-03-05 20:32:00,
2013-03-05 14:41:00,32.0,19.0,30.00,West,280,17.0,28.0,59,-99.99,,,-99.99,,2013-03-05 20:41:00,
2013-03-05 14:52:00,32.0,19.0,30.00,West,280,16.0,-999.0,59,-99.99,,,-99.99,,2013-03-05 20:52:00,
2013-03-05 15:02:00,32.0,19.0,30.00,West,280,16.0,-999.0,59,-99.99,,,-99.99,,2013-03-05 21:02:00,
2013-03-05 15:11:00,32.0,19.0,30.00,West,280,16.0,-999.0,59,-99.99,,,-99.99,,2013-03-05 21:11:00,
2013-03-05 15:21:00,34.0,21.0,30.00,WNW,290,14.0,24.0,59,-99.99,,,-99.99,,2013-03-05 21:21:00,
2013-03-05 15:31:00,34.0,21.0,30.00,West,280,17.0,22.0,59,-99.99,,,-99.99,,2013-03-05 21:31:00,
2013-03-05 15:42:00,34.0,21.0,30.00,West,280,14.0,23.0,59,-99.99,,,-99.99,,2013-03-05 21:42:00,
2013-03-05 15:52:00,34.0,21.0,30.00,WNW,290,17.0,-999.0,59,-99.99,,,-99.99,,2013-03-05 21:52:00,
2013-03-05 16:01:00,34.0,21.0,30.00,WNW,290,17.0,-999.0,59,-99.99,,,-99.99,,2013-03-05 22:01:00,
2013-03-05 16:11:00,34.0,21.0,30.00,WNW,290,17.0,-999.0,59,-99.99,,,-99.99,,2013-03-05 22:11:00,
2013-03-05 16:21:00,34.0,25.0,30.00,West,270,18.0,-999.0,69,-99.99,,,-99.99,,2013-03-05 22:21:00,
2013-03-05 16:32:00,32.0,25.0,30.01,West,280,17.0,24.0,74,-99.99,,,-99.99,,2013-03-05 22:32:00,
2013-03-05 16:42:00,32.0,25.0,30.01,West,270,16.0,-999.0,74,-99.99,,,-99.99,,2013-03-05 22:42:00,
2013-03-05 16:52:00,32.0,27.0,30.01,West,280,18.0,24.0,80,-99.99,,,-99.99,,2013-03-05 22:52:00,
2013-03-05 17:01:00,32.0,27.0,30.02,WNW,290,15.0,29.0,80,-99.99,,,-99.99,,2013-03-05 23:01:00,
2013-03-05 17:11:00,32.0,27.0,30.02,WNW,290,15.0,29.0,80,-99.99,,,-99.99,,2013-03-05 23:11:00,
2013-03-05 17:21:00,32.0,27.0,30.02,WNW,300,16.0,-999.0,80,-99.99,,,-99.99,,2013-03-05 23:21:00,
2013-03-05 17:32:00,32.0,27.0,30.02,WNW,300,16.0,-999.0,80,-99.99,,,-99.99,,2013-03-05 23:32:00,
2013-03-05 17:41:00,32.0,27.0,30.03,WNW,300,20.0,24.0,80,-99.99,,,-99.99,,2013-03-05 23:41:00,
2013-03-05 17:53:00,32.0,25.0,30.04,WNW,300,20.0,28.0,74,-99.99,,,-99.99,,2013-03-05 23:53:00,
2013-03-05 18:01:00,32.0,25.0,30.04,WNW,300,18.0,25.0,74,-99.99,,,-99.99,,2013-03-06 00:01:00,
2013-03-05 18:11:00,32.0,25.0,30.04,WNW,300,18.0,25.0,74,-99.99,,,-99.99,,2013-03-06 00:11:00,
2013-03-05 18:21:00,32.0,23.0,30.05,WNW,300,17.0,29.0,69,-99.99,,,-99.99,,2013-03-06 00:21:00,
2013-03-05 18:32:00,32.0,21.0,30.06,WNW,300,18.0,30.0,63,-99.99,,,-99.99,,2013-03-06 00:32:00,
2013-03-05 18:41:00,32.0,23.0,30.07,WNW,300,16.0,28.0,69,-99.99,,,-99.99,,2013-03-06 00:41:00,
2013-03-05 18:52:00,32.0,23.0,30.07,WNW,300,17.0,27.0,69,-99.99,,,-99.99,,2013-03-06 00:52:00,
2013-03-05 19:01:00,32.0,23.0,30.07,WNW,300,17.0,25.0,69,-99.99,,,-99.99,,2013-03-06 01:01:00,
2013-03-05 19:11:00,32.0,23.0,30.07,WNW,300,17.0,25.0,69,-99.99,,,-99.99,,2013-03-06 01:11:00,
2013-03-05 19:21:00,32.0,23.0,30.07,WNW,300,17.0,25.0,69,-99.99,,,-99.99,,2013-03-06 01:21:00,
2013-03-05 19:32:00,32.0,23.0,30.08,NW,310,20.0,24.0,69,-99.99,,,-99.99,,2013-03-06 01:32:00,
2013-03-05 19:41:00,32.0,25.0,30.08,WNW,300,22.0,31.0,74,-99.99,,,-99.99,,2013-03-06 01:41:00,
2013-03-05 19:52:00,32.0,25.0,30.08,WNW,300,22.0,30.0,74,-99.99,,,-99.99,,2013-03-06 01:52:00,
2013-03-05 20:01:00,32.0,25.0,30.08,WNW,300,18.0,29.0,74,-99.99,,,-99.99,,2013-03-06 02:01:00,
2013-03-05 20:11:00,32.0,25.0,30.08,WNW,300,18.0,29.0,74,-99.99,,,-99.99,,2013-03-06 02:11:00,
2013-03-05 20:22:00,32.0,25.0,30.09,NW,320,20.0,32.0,74,-99.99,,,-99.99,,2013-03-06 02:22:00,
2013-03-05 20:31:00,32.0,25.0,30.09,NW,320,20.0,32.0,74,-99.99,,,-99.99,,2013-03-06 02:31:00,
2013-03-05 20:41:00,32.0,25.0,30.10,WNW,300,17.0,27.0,74,-99.99,,,-99.99,,2013-03-06 02:41:00,
2013-03-05 20:52:00,32.0,23.0,30.10,WNW,300,20.0,25.0,69,-99.99,,,-99.99,,2013-03-06 02:52:00,
2013-03-05 21:01:00,32.0,23.0,30.10,NW,310,21.0,35.0,69,-99.99,,,-99.99,,2013-03-06 03:01:00,
2013-03-05 21:11:00,32.0,23.0,30.10,NW,310,21.0,35.0,69,-99.99,,,-99.99,,2013-03-06 03:11:00,
2013-03-05 21:21:00,32.0,23.0,30.10,NW,310,21.0,35.0,69,-99.99,,,-99.99,,2013-03-06 03:21:00,
2013-03-05 21:32:00,32.0,23.0,30.12,NW,310,18.0,28.0,69,-99.99,,,-99.99,,2013-03-06 03:32:00,
2013-03-05 21:41:00,32.0,23.0,30.13,NW,310,20.0,27.0,69,-99.99,,,-99.99,,2013-03-06 03:41:00,
2013-03-05 21:52:00,32.0,23.0,30.14,NW,320,16.0,30.0,69,-99.99,,,-99.99,,2013-03-06 03:52:00,
2013-03-05 22:02:00,32.0,23.0,30.14,NW,310,23.0,35.0,69,-99.99,,,-99.99,,2013-03-06 04:02:00,
2013-03-05 22:11:00,32.0,23.0,30.14,NW,310,23.0,35.0,69,-99.99,,,-99.99,,2013-03-06 04:11:00,
2013-03-05 22:21:00,32.0,21.0,30.15,NW,320,21.0,30.0,63,-99.99,,,-99.99,,2013-03-06 04:21:00,
2013-03-05 22:32:00,32.0,21.0,30.15,NW,320,21.0,24.0,63,-99.99,,,-99.99,,2013-03-06 04:32:00,
2013-03-05 22:41:00,32.0,23.0,30.16,NW,320,15.0,21.0,69,-99.99,,,-99.99,,2013-03-06 04:41:00,
2013-03-05 22:52:00,32.0,23.0,30.16,NW,320,16.0,24.0,69,-99.99,,,-99.99,,2013-03-06 04:52:00,
2013-03-05 23:01:00,32.0,23.0,30.17,NW,320,16.0,22.0,69,-99.99,,,-99.99,,2013-03-06 05:01:00,
2013-03-05 23:11:00,32.0,23.0,30.17,NW,320,16.0,22.0,69,-99.99,,,-99.99,,2013-03-06 05:11:00,
2013-03-05 23:22:00,32.0,23.0,30.18,NNW,330,14.0,21.0,69,-99.99,,,-99.99,,2013-03-06 05:22:00,
2013-03-05 23:32:00,30.0,23.0,30.18,NW,320,20.0,24.0,74,-99.99,,,-99.99,,2013-03-06 05:32:00,
2013-03-05 23:42:00,30.0,23.0,30.18,NW,320,20.0,24.0,74,-99.99,,,-99.99,,2013-03-06 05:42:00,
2013-03-05 23:52:00,30.0,21.0,30.18,NW,320,21.0,28.0,68,-99.99,,,-99.99,,2013-03-06 05:52:00,